Time,TemperatureF,DewpointF,PressureIn,WindDirection,WindDirectionDegrees,WindSpeedMPH,WindSpeedGustMPH,Humidity,HourlyPrecipIn,Conditions,Clouds,dailyrainin,SoftwareType,DateUTC
2013-01-07 00:01:00,33.6,22.5,30.28,South,173,9.0,13.0,63,0.00,,,0.00,meteohub,2013-01-07 06:01:00,
2013-01-07 00:06:00,33.6,22.5,30.27,SE,143,5.0,16.0,63,0.00,,,0.00,meteohub,2013-01-07 06:06:00,
2013-01-07 00:11:00,33.6,22.5,30.27,SSE,156,3.0,16.0,63,0.00,,,0.00,meteohub,2013-01-07 06:11:00,
2013-01-07 00:16:00,33.4,22.3,30.27,West,269,5.0,16.0,63,0.00,,,0.00,meteohub,2013-01-07 06:16:00,
2013-01-07 00:21:00,33.6,22.5,30.27,SSE,161,5.0,13.0,63,0.00,,,0.00,meteohub,2013-01-07 06:21:00,
2013-01-07 00:26:00,33.6,22.5,30.27,SSE,160,6.0,13.0,63,0.00,,,0.00,meteohub,2013-01-07 06:26:00,
2013-01-07 00:31:00,33.6,22.5,30.27,South,171,4.0,13.0,63,0.00,,,0.00,meteohub,2013-01-07 06:31:00,
2013-01-07 00:36:00,33.6,22.5,30.27,South,182,5.0,13.0,63,0.00,,,0.00,meteohub,2013-01-07 06:36:00,
2013-01-07 00:42:00,33.4,22.3,30.27,SSE,154,4.0,12.0,63,0.00,,,0.00,meteohub,2013-01-07 06:42:00,
2013-01-07 00:47:00,33.4,22.3,30.27,ESE,121,4.0,12.0,63,0.00,,,0.00,meteohub,2013-01-07 06:47:00,
2013-01-07 00:52:00,33.3,22.5,30.27,SE,135,7.0,10.0,64,0.00,,,0.00,meteohub,2013-01-07 06:52:00,
2013-01-07 00:57:00,33.1,22.3,30.27,South,171,6.0,11.0,64,0.00,,,0.00,meteohub,2013-01-07 06:57:00,
2013-01-07 01:02:00,32.7,22.3,30.27,SSW,196,7.0,11.0,65,0.00,,,0.00,meteohub,2013-01-07 07:02:00,
2013-01-07 01:07:00,32.7,22.3,30.27,SSE,159,4.0,12.0,65,0.00,,,0.00,meteohub,2013-01-07 07:07:00,
2013-01-07 01:12:00,32.5,22.1,30.27,SSW,207,5.0,12.0,65,0.00,,,0.00,meteohub,2013-01-07 07:12:00,
2013-01-07 01:17:00,32.5,22.5,30.27,South,169,4.0,13.0,66,0.00,,,0.00,meteohub,2013-01-07 07:17:00,
2013-01-07 01:22:00,32.5,22.5,30.26,SSE,153,7.0,13.0,66,0.00,,,0.00,meteohub,2013-01-07 07:22:00,
2013-01-07 01:27:00,32.4,22.3,30.26,South,182,7.0,15.0,66,0.00,,,0.00,meteohub,2013-01-07 07:27:00,
2013-01-07 01:32:00,32.4,22.3,30.26,South,185,6.0,15.0,66,0.00,,,0.00,meteohub,2013-01-07 07:32:00,
2013-01-07 01:37:00,32.4,22.3,30.26,SW,224,5.0,15.0,66,0.00,,,0.00,meteohub,2013-01-07 07:37:00,
2013-01-07 01:42:00,32.4,22.3,30.26,South,177,5.0,15.0,66,0.00,,,0.00,meteohub,2013-01-07 07:42:00,
2013-01-07 01:47:00,32.4,22.3,30.26,South,183,6.0,13.0,66,0.00,,,0.00,meteohub,2013-01-07 07:47:00,
2013-01-07 01:52:00,32.2,22.5,30.26,SSE,166,4.0,13.0,67,0.00,,,0.00,meteohub,2013-01-07 07:52:00,
2013-01-07 01:57:00,32.2,22.5,30.26,SSE,153,7.0,11.0,67,0.00,,,0.00,meteohub,2013-01-07 07:57:00,
2013-01-07 02:02:00,32.2,22.5,30.26,SSE,168,6.0,11.0,67,0.00,,,0.00,meteohub,2013-01-07 08:02:00,
2013-01-07 02:07:00,32.0,22.3,30.26,SSE,168,4.0,10.0,67,0.00,,,0.00,meteohub,2013-01-07 08:07:00,
2013-01-07 02:12:00,32.0,22.6,30.26,South,171,3.0,10.0,68,0.00,,,0.00,meteohub,2013-01-07 08:12:00,
2013-01-07 02:17:00,31.8,22.5,30.26,SSE,160,3.0,10.0,68,0.00,,,0.00,meteohub,2013-01-07 08:17:00,
2013-01-07 02:22:00,31.8,22.5,30.26,SSE,159,3.0,10.0,68,0.00,,,0.00,meteohub,2013-01-07 08:22:00,
2013-01-07 02:27:00,31.6,22.3,30.26,South,169,3.0,9.0,68,0.00,,,0.00,meteohub,2013-01-07 08:27:00,
2013-01-07 02:32:00,31.5,22.1,30.26,SE,145,3.0,9.0,68,0.00,,,0.00,meteohub,2013-01-07 08:32:00,
2013-01-07 02:37:00,31.5,22.5,30.26,SE,124,3.0,6.0,69,0.00,,,0.00,meteohub,2013-01-07 08:37:00,
2013-01-07 02:42:00,31.5,22.5,30.26,South,175,2.0,6.0,69,0.00,,,0.00,meteohub,2013-01-07 08:42:00,
2013-01-07 02:47:00,31.3,22.3,30.26,South,171,4.0,7.0,69,0.00,,,0.00,meteohub,2013-01-07 08:47:00,
2013-01-07 02:52:00,31.5,22.5,30.25,South,173,5.0,7.0,69,0.00,,,0.00,meteohub,2013-01-07 08:52:00,
2013-01-07 02:57:00,31.6,22.6,30.26,SSW,196,5.0,6.0,69,0.00,,,0.00,meteohub,2013-01-07 08:57:00,
2013-01-07 03:02:00,32.0,23.0,30.25,South,169,4.0,6.0,69,0.00,,,0.00,meteohub,2013-01-07 09:02:00,
2013-01-07 03:07:00,32.4,23.0,30.25,SSE,154,6.0,7.0,68,0.00,,,0.00,meteohub,2013-01-07 09:07:00,
2013-01-07 03:12:00,32.5,23.2,30.25,South,182,5.0,7.0,68,0.00,,,0.00,meteohub,2013-01-07 09:12:00,
2013-01-07 03:17:00,32.5,22.8,30.25,SSE,159,4.0,10.0,67,0.00,,,0.00,meteohub,2013-01-07 09:17:00,
2013-01-07 03:22:00,32.4,22.6,30.25,SSE,148,4.0,10.0,67,0.00,,,0.00,meteohub,2013-01-07 09:22:00,
2013-01-07 03:27:00,32.4,22.6,30.25,SE,146,3.0,9.0,67,0.00,,,0.00,meteohub,2013-01-07 09:27:00,
2013-01-07 03:32:00,32.4,22.6,30.25,SSE,166,2.0,9.0,67,0.00,,,0.00,meteohub,2013-01-07 09:32:00,
2013-01-07 03:37:00,32.4,23.0,30.25,SSE,162,3.0,9.0,68,0.00,,,0.00,meteohub,2013-01-07 09:37:00,
2013-01-07 03:42:00,32.4,23.0,30.25,SSE,148,3.0,9.0,68,0.00,,,0.00,meteohub,2013-01-07 09:42:00,
2013-01-07 03:47:00,32.2,22.8,30.24,South,173,2.0,5.0,68,0.00,,,0.00,meteohub,2013-01-07 09:47:00,
2013-01-07 03:52:00,32.0,22.6,30.24,SSE,155,2.0,5.0,68,0.00,,,0.00,meteohub,2013-01-07 09:52:00,
2013-01-07 03:57:00,32.0,22.6,30.24,SSE,166,2.0,6.0,68,0.00,,,0.00,meteohub,2013-01-07 09:57:00,
2013-01-07 04:02:00,32.0,22.6,30.24,SSE,159,3.0,6.0,68,0.00,,,0.00,meteohub,2013-01-07 10:02:00,
2013-01-07 04:07:00,32.2,22.8,30.25,SSE,152,3.0,6.0,68,0.00,,,0.00,meteohub,2013-01-07 10:07:00,
2013-01-07 04:12:00,32.2,22.8,30.25,South,184,4.0,10.0,68,0.00,,,0.00,meteohub,2013-01-07 10:12:00,
2013-01-07 04:17:00,32.2,22.8,30.24,South,178,4.0,10.0,68,0.00,,,0.00,meteohub,2013-01-07 10:17:00,
2013-01-07 04:22:00,32.2,22.8,30.24,South,173,7.0,10.0,68,0.00,,,0.00,meteohub,2013-01-07 10:22:00,
2013-01-07 04:27:00,32.2,22.8,30.24,SSE,153,5.0,9.0,68,0.00,,,0.00,meteohub,2013-01-07 10:27:00,
2013-01-07 04:32:00,32.0,22.6,30.24,SSE,156,3.0,9.0,68,0.00,,,0.00,meteohub,2013-01-07 10:32:00,
2013-01-07 04:37:00,31.8,22.8,30.23,South,174,5.0,7.0,69,0.00,,,0.00,meteohub,2013-01-07 10:37:00,
2013-01-07 04:42:00,32.2,22.8,30.23,SSE,147,4.0,7.0,68,0.00,,,0.00,meteohub,2013-01-07 10:42:00,
2013-01-07 04:47:00,32.2,22.8,30.23,SSE,165,5.0,11.0,68,0.00,,,0.00,meteohub,2013-01-07 10:47:00,
2013-01-07 04:52:00,32.2,22.8,30.23,SSE,150,6.0,11.0,68,0.00,,,0.00,meteohub,2013-01-07 10:52:00,
2013-01-07 04:57:00,32.2,22.8,30.23,South,172,5.0,11.0,68,0.00,,,0.00,meteohub,2013-01-07 10:57:00,
2013-01-07 05:02:00,32.2,22.8,30.22,South,180,4.0,11.0,68,0.00,,,0.00,meteohub,2013-01-07 11:02:00,
2013-01-07 05:07:00,32.2,22.8,30.23,SSE,168,1.0,9.0,68,0.00,,,0.00,meteohub,2013-01-07 11:07:00,
2013-01-07 05:12:00,32.2,22.8,30.22,SSE,163,4.0,9.0,68,0.00,,,0.00,meteohub,2013-01-07 11:12:00,
2013-01-07 05:17:00,32.2,22.8,30.22,SSE,154,4.0,11.0,68,0.00,,,0.00,meteohub,2013-01-07 11:17:00,
2013-01-07 05:22:00,32.2,22.8,30.22,SSE,159,3.0,11.0,68,0.00,,,0.00,meteohub,2013-01-07 11:22:00,
2013-01-07 05:27:00,31.8,22.5,30.22,South,185,10.0,10.0,68,0.00,,,0.00,meteohub,2013-01-07 11:27:00,
2013-01-07 05:32:00,31.8,22.8,30.22,SSE,155,5.0,10.0,69,0.00,,,0.00,meteohub,2013-01-07 11:32:00,
2013-01-07 05:37:00,31.8,22.8,30.22,SSE,161,5.0,10.0,69,0.00,,,0.00,meteohub,2013-01-07 11:37:00,
2013-01-07 05:42:00,31.8,22.8,30.22,SSE,165,3.0,10.0,69,0.00,,,0.00,meteohub,2013-01-07 11:42:00,
2013-01-07 05:47:00,31.8,22.8,30.22,South,170,7.0,9.0,69,0.00,,,0.00,meteohub,2013-01-07 11:47:00,
2013-01-07 05:52:00,31.8,22.5,30.22,SSE,151,3.0,9.0,68,0.00,,,0.00,meteohub,2013-01-07 11:52:00,
2013-01-07 05:57:00,31.5,22.5,30.22,SSE,165,3.0,8.0,69,0.00,,,0.00,meteohub,2013-01-07 11:57:00,
2013-01-07 06:02:00,31.3,22.3,30.22,SSE,165,3.0,8.0,69,0.00,,,0.00,meteohub,2013-01-07 12:02:00,
2013-01-07 06:07:00,31.1,22.5,30.22,SSE,168,3.0,5.0,70,0.00,,,0.00,meteohub,2013-01-07 12:07:00,
2013-01-07 06:12:00,31.1,22.5,30.22,SSE,152,4.0,5.0,70,0.00,,,0.00,meteohub,2013-01-07 12:12:00,
2013-01-07 06:17:00,31.3,22.6,30.22,South,173,1.0,6.0,70,0.00,,,0.00,meteohub,2013-01-07 12:17:00,
2013-01-07 06:22:00,31.5,22.5,30.22,SSE,153,2.0,6.0,69,0.00,,,0.00,meteohub,2013-01-07 12:22:00,
2013-01-07 06:27:00,31.8,22.8,30.22,South,191,8.0,11.0,69,0.00,,,0.00,meteohub,2013-01-07 12:27:00,
2013-01-07 06:32:00,32.2,22.8,30.22,South,171,5.0,11.0,68,0.00,,,0.00,meteohub,2013-01-07 12:32:00,
2013-01-07 06:37:00,32.4,22.6,30.22,South,178,1.0,11.0,67,0.00,,,0.00,meteohub,2013-01-07 12:37:00,
2013-01-07 06:42:00,32.4,22.6,30.22,South,190,2.0,12.0,67,0.00,,,0.00,meteohub,2013-01-07 12:42:00,
2013-01-07 06:47:00,32.4,22.6,30.22,South,175,8.0,12.0,67,0.00,,,0.00,meteohub,2013-01-07 12:47:00,
2013-01-07 06:52:00,32.5,22.8,30.22,ESE,117,4.0,12.0,67,0.00,,,0.00,meteohub,2013-01-07 12:52:00,
2013-01-07 06:57:00,32.4,22.6,30.21,SSE,148,8.0,12.0,67,0.00,,,0.00,meteohub,2013-01-07 12:57:00,
2013-01-07 07:02:00,32.0,22.3,30.22,SSE,159,9.0,15.0,67,0.00,,,0.00,meteohub,2013-01-07 13:02:00,
2013-01-07 07:07:00,31.6,22.3,30.22,South,182,4.0,15.0,68,0.00,,,0.00,meteohub,2013-01-07 13:07:00,
2013-01-07 07:12:00,31.5,22.1,30.22,SSE,154,4.0,13.0,68,0.00,,,0.00,meteohub,2013-01-07 13:12:00,
2013-01-07 07:17:00,31.5,22.5,30.22,South,182,10.0,13.0,69,0.00,,,0.00,meteohub,2013-01-07 13:17:00,
2013-01-07 07:22:00,31.5,22.5,30.22,South,187,5.0,13.0,69,0.00,,,0.00,meteohub,2013-01-07 13:22:00,
2013-01-07 07:27:00,31.5,22.5,30.22,SSE,167,5.0,13.0,69,0.00,,,0.00,meteohub,2013-01-07 13:27:00,
2013-01-07 07:32:00,31.5,22.5,30.22,SSE,152,2.0,14.0,69,0.00,,,0.00,meteohub,2013-01-07 13:32:00,
2013-01-07 07:37:00,31.3,22.3,30.22,SE,146,7.0,14.0,69,0.00,,,0.00,meteohub,2013-01-07 13:37:00,
2013-01-07 07:42:00,31.3,22.3,30.22,SE,136,4.0,10.0,69,0.00,,,0.00,meteohub,2013-01-07 13:42:00,
2013-01-07 07:47:00,31.5,22.5,30.22,SSE,162,4.0,10.0,69,0.00,,,0.00,meteohub,2013-01-07 13:47:00,
2013-01-07 07:52:00,31.5,22.5,30.22,SSE,152,5.0,10.0,69,0.00,,,0.00,meteohub,2013-01-07 13:52:00,
2013-01-07 07:57:00,31.5,22.5,30.22,SSE,151,4.0,10.0,69,0.00,,,0.00,meteohub,2013-01-07 13:57:00,
2013-01-07 08:02:00,31.5,22.5,30.22,South,171,5.0,10.0,69,0.00,,,0.00,meteohub,2013-01-07 14:02:00,
2013-01-07 08:07:00,31.6,22.6,30.22,South,171,5.0,10.0,69,0.00,,,0.00,meteohub,2013-01-07 14:07:00,
2013-01-07 08:12:00,31.6,22.6,30.22,SSW,199,4.0,10.0,69,0.00,,,0.00,meteohub,2013-01-07 14:12:00,
2013-01-07 08:17:00,31.8,22.8,30.22,SSE,168,5.0,10.0,69,0.00,,,0.00,meteohub,2013-01-07 14:17:00,
2013-01-07 08:22:00,31.8,22.8,30.21,SSE,159,5.0,10.0,69,0.00,,,0.00,meteohub,2013-01-07 14:22:00,
2013-01-07 08:27:00,31.8,22.8,30.21,SE,142,6.0,10.0,69,0.00,,,0.00,meteohub,2013-01-07 14:27:00,
2013-01-07 08:32:00,32.2,23.2,30.21,South,173,4.0,10.0,69,0.00,,,0.00,meteohub,2013-01-07 14:32:00,
2013-01-07 08:38:00,32.5,23.2,30.21,SE,144,6.0,10.0,68,0.00,,,0.00,meteohub,2013-01-07 14:38:00,
2013-01-07 08:43:00,33.1,23.4,30.21,South,171,5.0,10.0,67,0.00,,,0.00,meteohub,2013-01-07 14:43:00,
2013-01-07 08:47:00,33.4,23.4,30.22,SSE,163,4.0,13.0,66,0.00,,,0.00,meteohub,2013-01-07 14:47:00,
2013-01-07 08:53:00,34.0,23.9,30.22,SSE,160,4.0,13.0,66,0.00,,,0.00,meteohub,2013-01-07 14:53:00,
2013-01-07 08:58:00,34.5,23.9,30.22,SE,145,4.0,11.0,65,0.00,,,0.00,meteohub,2013-01-07 14:58:00,
2013-01-07 09:03:00,35.2,23.9,30.22,South,184,4.0,11.0,63,0.00,,,0.00,meteohub,2013-01-07 15:03:00,
2013-01-07 09:08:00,35.6,23.9,30.23,SW,218,5.0,14.0,62,0.00,,,0.00,meteohub,2013-01-07 15:08:00,
2013-01-07 09:13:00,36.0,23.9,30.23,SSE,166,9.0,14.0,61,0.00,,,0.00,meteohub,2013-01-07 15:13:00,
2013-01-07 09:18:00,36.0,23.9,30.22,South,172,4.0,15.0,61,0.00,,,0.00,meteohub,2013-01-07 15:18:00,
2013-01-07 09:23:00,36.1,24.1,30.22,South,176,6.0,15.0,61,0.00,,,0.00,meteohub,2013-01-07 15:23:00,
2013-01-07 09:28:00,36.5,24.3,30.22,South,182,10.0,16.0,61,0.00,,,0.00,meteohub,2013-01-07 15:28:00,
2013-01-07 09:33:00,36.7,24.1,30.22,SE,142,6.0,12.0,60,0.00,,,0.00,meteohub,2013-01-07 15:33:00,
2013-01-07 09:38:00,36.9,24.3,30.22,SSE,157,3.0,12.0,60,0.00,,,0.00,meteohub,2013-01-07 15:38:00,
2013-01-07 09:43:00,37.2,24.6,30.21,SSE,160,8.0,12.0,60,0.00,,,0.00,meteohub,2013-01-07 15:43:00,
2013-01-07 09:48:00,37.4,24.8,30.21,SSW,192,3.0,15.0,60,0.00,,,0.00,meteohub,2013-01-07 15:48:00,
2013-01-07 09:53:00,37.6,24.6,30.21,SSE,148,10.0,15.0,59,0.00,,,0.00,meteohub,2013-01-07 15:53:00,
2013-01-07 09:58:00,38.1,24.6,30.21,SSE,163,6.0,16.0,58,0.00,,,0.00,meteohub,2013-01-07 15:58:00,
2013-01-07 10:03:00,38.5,25.0,30.22,SE,137,5.0,16.0,58,0.00,,,0.00,meteohub,2013-01-07 16:03:00,
2013-01-07 10:08:00,38.7,25.2,30.22,SSW,203,6.0,16.0,58,0.00,,,0.00,meteohub,2013-01-07 16:08:00,
2013-01-07 10:13:00,38.8,25.0,30.21,SW,232,4.0,17.0,57,0.00,,,0.00,meteohub,2013-01-07 16:13:00,
2013-01-07 10:18:00,39.4,25.0,30.22,SSW,194,7.0,17.0,56,0.00,,,0.00,meteohub,2013-01-07 16:18:00,
2013-01-07 10:23:00,39.6,25.2,30.22,SSE,154,7.0,16.0,56,0.00,,,0.00,meteohub,2013-01-07 16:23:00,
2013-01-07 10:28:00,39.7,25.3,30.21,SSE,161,6.0,16.0,56,0.00,,,0.00,meteohub,2013-01-07 16:28:00,
2013-01-07 10:33:00,40.3,25.3,30.22,SSE,154,4.0,16.0,55,0.00,,,0.00,meteohub,2013-01-07 16:33:00,
2013-01-07 10:38:00,40.6,25.7,30.21,SSE,165,7.0,15.0,55,0.00,,,0.00,meteohub,2013-01-07 16:38:00,
2013-01-07 10:43:00,40.6,25.3,30.21,South,170,6.0,15.0,54,0.00,,,0.00,meteohub,2013-01-07 16:43:00,
2013-01-07 10:48:00,40.6,25.3,30.21,SE,141,10.0,15.0,54,0.00,,,0.00,meteohub,2013-01-07 16:48:00,
2013-01-07 10:53:00,40.5,25.5,30.21,SSE,151,5.0,17.0,55,0.00,,,0.00,meteohub,2013-01-07 16:53:00,
2013-01-07 10:58:00,40.8,25.9,30.20,SSE,157,5.0,17.0,55,0.00,,,0.00,meteohub,2013-01-07 16:58:00,
2013-01-07 11:03:00,41.4,25.9,30.20,SSE,159,4.0,17.0,54,0.00,,,0.00,meteohub,2013-01-07 17:03:00,
2013-01-07 11:08:00,41.5,26.1,30.20,SSE,165,8.0,17.0,54,0.00,,,0.00,meteohub,2013-01-07 17:08:00,
2013-01-07 11:13:00,41.9,26.4,30.19,SW,214,5.0,17.0,54,0.00,,,0.00,meteohub,2013-01-07 17:13:00,
2013-01-07 11:18:00,42.4,26.6,30.19,SSE,158,6.0,17.0,53,0.00,,,0.00,meteohub,2013-01-07 17:18:00,
2013-01-07 11:23:00,42.6,26.6,30.18,SSW,194,6.0,12.0,53,0.00,,,0.00,meteohub,2013-01-07 17:23:00,
2013-01-07 11:28:00,43.2,27.1,30.18,SE,129,8.0,12.0,53,0.00,,,0.00,meteohub,2013-01-07 17:28:00,
2013-01-07 11:33:00,43.5,27.1,30.18,South,188,3.0,14.0,52,0.00,,,0.00,meteohub,2013-01-07 17:33:00,
2013-01-07 11:38:00,44.2,27.3,30.17,WSW,252,9.0,14.0,51,0.00,,,0.00,meteohub,2013-01-07 17:38:00,
2013-01-07 11:43:00,44.8,27.3,30.17,SE,143,11.0,19.0,50,0.00,,,0.00,meteohub,2013-01-07 17:43:00,
2013-01-07 11:48:00,45.3,27.3,30.16,SW,223,5.0,19.0,49,0.00,,,0.00,meteohub,2013-01-07 17:48:00,
2013-01-07 11:53:00,45.7,27.1,30.16,SSW,213,5.0,19.0,48,0.00,,,0.00,meteohub,2013-01-07 17:53:00,
2013-01-07 11:58:00,45.9,26.8,30.15,SE,142,10.0,16.0,47,0.00,,,0.00,meteohub,2013-01-07 17:58:00,
2013-01-07 12:03:00,45.9,26.8,30.15,SSW,196,8.0,16.0,47,0.00,,,0.00,meteohub,2013-01-07 18:03:00,
2013-01-07 12:08:00,45.9,26.8,30.14,SSE,165,9.0,18.0,47,0.00,,,0.00,meteohub,2013-01-07 18:08:00,
2013-01-07 12:13:00,45.9,26.8,30.14,SSE,167,8.0,21.0,47,0.00,,,0.00,meteohub,2013-01-07 18:13:00,
2013-01-07 12:18:00,46.0,27.0,30.14,SSE,152,13.0,21.0,47,0.00,,,0.00,meteohub,2013-01-07 18:18:00,
2013-01-07 12:23:00,46.6,27.5,30.13,SSE,150,9.0,21.0,47,0.00,,,0.00,meteohub,2013-01-07 18:23:00,
2013-01-07 12:28:00,46.9,27.3,30.12,WSW,243,9.0,20.0,46,0.00,,,0.00,meteohub,2013-01-07 18:28:00,
2013-01-07 12:33:00,47.5,27.7,30.12,SW,215,16.0,20.0,46,0.00,,,0.00,meteohub,2013-01-07 18:33:00,
2013-01-07 12:38:00,47.8,27.5,30.12,SSW,212,12.0,23.0,45,0.00,,,0.00,meteohub,2013-01-07 18:38:00,
2013-01-07 12:43:00,48.0,27.1,30.11,South,190,4.0,23.0,44,0.00,,,0.00,meteohub,2013-01-07 18:43:00,
2013-01-07 12:48:00,48.2,27.3,30.11,SW,233,9.0,26.0,44,0.00,,,0.00,meteohub,2013-01-07 18:48:00,
2013-01-07 12:53:00,48.7,27.3,30.11,SW,216,9.0,26.0,43,0.00,,,0.00,meteohub,2013-01-07 18:53:00,
2013-01-07 12:58:00,48.9,27.3,30.11,SSW,204,9.0,18.0,43,0.00,,,0.00,meteohub,2013-01-07 18:58:00,
2013-01-07 13:03:00,49.1,27.5,30.10,SSW,199,6.0,18.0,43,0.00,,,0.00,meteohub,2013-01-07 19:03:00,
2013-01-07 13:08:00,48.7,27.3,30.10,South,182,10.0,21.0,43,0.00,,,0.00,meteohub,2013-01-07 19:08:00,
2013-01-07 13:13:00,48.6,27.7,30.10,SSW,193,9.0,19.0,44,0.00,,,0.00,meteohub,2013-01-07 19:13:00,
2013-01-07 13:18:00,48.4,27.5,30.10,SE,140,10.0,16.0,44,0.00,,,0.00,meteohub,2013-01-07 19:18:00,
2013-01-07 13:23:00,48.0,27.7,30.10,SSW,192,10.0,16.0,45,0.00,,,0.00,meteohub,2013-01-07 19:23:00,
2013-01-07 13:28:00,47.8,27.0,30.10,SSW,207,7.0,16.0,44,0.00,,,0.00,meteohub,2013-01-07 19:28:00,
2013-01-07 13:33:00,47.8,27.5,30.10,SSE,167,6.0,16.0,45,0.00,,,0.00,meteohub,2013-01-07 19:33:00,
2013-01-07 13:38:00,48.0,27.7,30.10,South,175,12.0,16.0,45,0.00,,,0.00,meteohub,2013-01-07 19:38:00,
2013-01-07 13:43:00,48.4,28.0,30.10,SSW,197,17.0,17.0,45,0.00,,,0.00,meteohub,2013-01-07 19:43:00,
2013-01-07 13:48:00,48.6,28.2,30.11,SSW,202,10.0,17.0,45,0.00,,,0.00,meteohub,2013-01-07 19:48:00,
2013-01-07 13:53:00,48.9,28.0,30.10,SSE,157,11.0,17.0,44,0.00,,,0.00,meteohub,2013-01-07 19:53:00,
2013-01-07 13:58:00,49.1,28.0,30.10,SW,220,7.0,17.0,44,0.00,,,0.00,meteohub,2013-01-07 19:58:00,
2013-01-07 14:03:00,49.1,28.0,30.09,West,269,9.0,17.0,44,0.00,,,0.00,meteohub,2013-01-07 20:03:00,
2013-01-07 14:08:00,49.5,28.4,30.09,SSW,210,11.0,15.0,44,0.00,,,0.00,meteohub,2013-01-07 20:08:00,
2013-01-07 14:13:00,49.1,28.0,30.09,SSW,208,8.0,17.0,44,0.00,,,0.00,meteohub,2013-01-07 20:13:00,
2013-01-07 14:18:00,49.1,28.0,30.08,SSW,192,5.0,17.0,44,0.00,,,0.00,meteohub,2013-01-07 20:18:00,
2013-01-07 14:20:00,49.1,28.0,30.09,SSW,212,10.0,17.0,44,0.00,,,0.00,meteohub,2013-01-07 20:20:00,
2013-01-07 14:25:00,49.1,28.8,30.08,ESE,123,6.0,17.0,45,0.00,,,0.00,meteohub,2013-01-07 20:25:00,
2013-01-07 14:30:00,48.9,28.0,30.08,South,182,11.0,17.0,44,0.00,,,0.00,meteohub,2013-01-07 20:30:00,
2013-01-07 14:35:00,48.7,28.4,30.09,SSW,207,7.0,17.0,45,0.00,,,0.00,meteohub,2013-01-07 20:35:00,
2013-01-07 14:40:00,48.4,28.0,30.09,South,173,8.0,17.0,45,0.00,,,0.00,meteohub,2013-01-07 20:40:00,
2013-01-07 14:45:00,48.2,28.4,30.09,SE,143,13.0,17.0,46,0.00,,,0.00,meteohub,2013-01-07 20:45:00,
2013-01-07 14:50:00,48.0,28.2,30.09,SW,219,12.0,17.0,46,0.00,,,0.00,meteohub,2013-01-07 20:50:00,
2013-01-07 14:55:00,48.0,28.2,30.09,SSE,155,4.0,17.0,46,0.00,,,0.00,meteohub,2013-01-07 20:55:00,
2013-01-07 15:00:00,47.8,28.0,30.09,SSE,150,8.0,17.0,46,0.00,,,0.00,meteohub,2013-01-07 21:00:00,
2013-01-07 15:05:00,47.8,28.0,30.09,SW,222,6.0,15.0,46,0.00,,,0.00,meteohub,2013-01-07 21:05:00,
2013-01-07 15:10:00,47.8,28.0,30.09,South,178,10.0,15.0,46,0.00,,,0.00,meteohub,2013-01-07 21:10:00,
2013-01-07 15:15:00,47.8,28.0,30.09,South,188,9.0,14.0,46,0.00,,,0.00,meteohub,2013-01-07 21:15:00,
2013-01-07 15:20:00,47.7,28.4,30.09,South,169,9.0,14.0,47,0.00,,,0.00,meteohub,2013-01-07 21:20:00,
2013-01-07 15:25:00,47.7,28.4,30.09,SSE,163,5.0,14.0,47,0.00,,,0.00,meteohub,2013-01-07 21:25:00,
2013-01-07 15:30:00,47.5,28.2,30.08,SSE,159,5.0,16.0,47,0.00,,,0.00,meteohub,2013-01-07 21:30:00,
2013-01-07 15:35:00,47.5,28.2,30.08,SSE,167,9.0,16.0,47,0.00,,,0.00,meteohub,2013-01-07 21:35:00,
2013-01-07 15:40:00,47.5,28.2,30.08,South,178,11.0,16.0,47,0.00,,,0.00,meteohub,2013-01-07 21:40:00,
2013-01-07 15:45:00,47.3,28.0,30.07,South,189,5.0,13.0,47,0.00,,,0.00,meteohub,2013-01-07 21:45:00,
2013-01-07 15:50:00,47.3,28.6,30.07,SSE,151,6.0,13.0,48,0.00,,,0.00,meteohub,2013-01-07 21:50:00,
2013-01-07 15:55:00,47.5,28.8,30.07,SSE,152,5.0,14.0,48,0.00,,,0.00,meteohub,2013-01-07 21:55:00,
2013-01-07 16:00:00,47.5,28.8,30.07,South,171,9.0,14.0,48,0.00,,,0.00,meteohub,2013-01-07 22:00:00,
2013-01-07 16:06:00,47.5,28.8,30.07,South,175,5.0,11.0,48,0.00,,,0.00,meteohub,2013-01-07 22:06:00,
2013-01-07 16:11:00,47.5,28.8,30.07,South,174,5.0,11.0,48,0.00,,,0.00,meteohub,2013-01-07 22:11:00,
2013-01-07 16:16:00,47.3,28.6,30.06,South,177,5.0,13.0,48,0.00,,,0.00,meteohub,2013-01-07 22:16:00,
2013-01-07 16:21:00,47.3,28.6,30.06,SSE,155,6.0,13.0,48,0.00,,,0.00,meteohub,2013-01-07 22:21:00,
2013-01-07 16:26:00,47.1,28.4,30.06,South,184,6.0,13.0,48,0.00,,,0.00,meteohub,2013-01-07 22:26:00,
2013-01-07 16:31:00,46.9,28.8,30.06,SSE,154,10.0,13.0,49,0.00,,,0.00,meteohub,2013-01-07 22:31:00,
2013-01-07 16:36:00,46.8,28.6,30.06,SSE,151,5.0,14.0,49,0.00,,,0.00,meteohub,2013-01-07 22:36:00,
2013-01-07 16:41:00,46.6,28.9,30.06,SSE,160,5.0,14.0,50,0.00,,,0.00,meteohub,2013-01-07 22:41:00,
2013-01-07 16:46:00,46.2,28.6,30.06,South,179,6.0,15.0,50,0.00,,,0.00,meteohub,2013-01-07 22:46:00,
2013-01-07 16:51:00,46.0,28.4,30.06,South,171,4.0,15.0,50,0.00,,,0.00,meteohub,2013-01-07 22:51:00,
2013-01-07 16:56:00,45.9,28.2,30.06,SSE,152,5.0,11.0,50,0.00,,,0.00,meteohub,2013-01-07 22:56:00,
2013-01-07 17:01:00,45.7,28.6,30.06,South,186,4.0,9.0,51,0.00,,,0.00,meteohub,2013-01-07 23:01:00,
2013-01-07 17:06:00,45.5,28.4,30.06,SSE,155,6.0,11.0,51,0.00,,,0.00,meteohub,2013-01-07 23:06:00,
2013-01-07 17:11:00,45.3,28.2,30.06,SE,144,5.0,11.0,51,0.00,,,0.00,meteohub,2013-01-07 23:11:00,
2013-01-07 17:16:00,45.3,28.2,30.06,SSE,167,9.0,11.0,51,0.00,,,0.00,meteohub,2013-01-07 23:16:00,
2013-01-07 17:21:00,45.3,28.2,30.06,SE,139,9.0,11.0,51,0.00,,,0.00,meteohub,2013-01-07 23:21:00,
2013-01-07 17:26:00,45.1,28.0,30.06,SSE,165,5.0,11.0,51,0.00,,,0.00,meteohub,2013-01-07 23:26:00,
2013-01-07 17:31:00,45.1,28.6,30.06,South,177,6.0,11.0,52,0.00,,,0.00,meteohub,2013-01-07 23:31:00,
2013-01-07 17:36:00,45.0,28.4,30.06,SSE,160,8.0,13.0,52,0.00,,,0.00,meteohub,2013-01-07 23:36:00,
2013-01-07 17:41:00,44.8,28.2,30.05,South,181,6.0,13.0,52,0.00,,,0.00,meteohub,2013-01-07 23:41:00,
2013-01-07 17:46:00,44.6,28.6,30.06,SSE,167,4.0,13.0,53,0.00,,,0.00,meteohub,2013-01-07 23:46:00,
2013-01-07 17:51:00,44.4,28.4,30.06,South,181,8.0,13.0,53,0.00,,,0.00,meteohub,2013-01-07 23:51:00,
2013-01-07 17:56:00,44.2,28.6,30.05,SSE,167,6.0,16.0,54,0.00,,,0.00,meteohub,2013-01-07 23:56:00,
2013-01-07 18:01:00,43.9,28.4,30.05,South,178,6.0,16.0,54,0.00,,,0.00,meteohub,2013-01-08 00:01:00,
2013-01-07 18:06:00,43.7,28.6,30.05,SSE,163,6.0,16.0,55,0.00,,,0.00,meteohub,2013-01-08 00:06:00,
2013-01-07 18:11:00,43.5,28.4,30.05,SSE,163,8.0,16.0,55,0.00,,,0.00,meteohub,2013-01-08 00:11:00,
2013-01-07 18:16:00,43.3,28.8,30.05,South,173,4.0,15.0,56,0.00,,,0.00,meteohub,2013-01-08 00:16:00,
2013-01-07 18:21:00,43.5,28.9,30.05,South,173,6.0,15.0,56,0.00,,,0.00,meteohub,2013-01-08 00:21:00,
2013-01-07 18:26:00,43.5,28.4,30.04,South,173,4.0,15.0,55,0.00,,,0.00,meteohub,2013-01-08 00:26:00,
2013-01-07 18:31:00,43.5,28.4,30.05,SSE,158,4.0,15.0,55,0.00,,,0.00,meteohub,2013-01-08 00:31:00,
2013-01-07 18:36:00,43.7,28.6,30.04,SSW,210,3.0,17.0,55,0.00,,,0.00,meteohub,2013-01-08 00:36:00,
2013-01-07 18:41:00,43.7,28.6,30.05,SW,215,7.0,17.0,55,0.00,,,0.00,meteohub,2013-01-08 00:41:00,
2013-01-07 18:46:00,43.7,28.6,30.05,SSE,160,7.0,14.0,55,0.00,,,0.00,meteohub,2013-01-08 00:46:00,
2013-01-07 18:51:00,43.5,28.4,30.05,SSE,159,5.0,14.0,55,0.00,,,0.00,meteohub,2013-01-08 00:51:00,
2013-01-07 18:56:00,43.5,28.4,30.05,SSE,153,6.0,14.0,55,0.00,,,0.00,meteohub,2013-01-08 00:56:00,
2013-01-07 19:01:00,43.3,28.8,30.05,SW,223,5.0,14.0,56,0.00,,,0.00,meteohub,2013-01-08 01:01:00,
2013-01-07 19:06:00,43.3,28.8,30.05,SSE,159,4.0,12.0,56,0.00,,,0.00,meteohub,2013-01-08 01:06:00,
2013-01-07 19:11:00,43.2,28.6,30.05,South,178,5.0,12.0,56,0.00,,,0.00,meteohub,2013-01-08 01:11:00,
2013-01-07 19:16:00,43.0,28.4,30.05,SSE,161,10.0,12.0,56,0.00,,,0.00,meteohub,2013-01-08 01:16:00,
2013-01-07 19:21:00,43.0,28.4,30.05,SSW,200,6.0,15.0,56,0.00,,,0.00,meteohub,2013-01-08 01:21:00,
2013-01-07 19:26:00,42.8,28.6,30.05,SSE,159,11.0,15.0,57,0.00,,,0.00,meteohub,2013-01-08 01:26:00,
2013-01-07 19:31:00,42.6,28.4,30.04,SSE,161,11.0,15.0,57,0.00,,,0.00,meteohub,2013-01-08 01:31:00,
2013-01-07 19:36:00,42.6,28.4,30.04,South,183,4.0,15.0,57,0.00,,,0.00,meteohub,2013-01-08 01:36:00,
2013-01-07 19:41:00,42.6,28.4,30.04,SW,227,5.0,15.0,57,0.00,,,0.00,meteohub,2013-01-08 01:41:00,
2013-01-07 19:46:00,42.4,28.2,30.04,SW,219,6.0,15.0,57,0.00,,,0.00,meteohub,2013-01-08 01:46:00,
2013-01-07 19:51:00,42.4,28.8,30.04,SSW,204,11.0,15.0,58,0.00,,,0.00,meteohub,2013-01-08 01:51:00,
2013-01-07 19:56:00,42.3,28.6,30.04,South,175,10.0,14.0,58,0.00,,,0.00,meteohub,2013-01-08 01:56:00,
2013-01-07 20:01:00,42.3,28.6,30.03,South,182,7.0,16.0,58,0.00,,,0.00,meteohub,2013-01-08 02:01:00,
2013-01-07 20:06:00,42.1,28.8,30.03,South,181,7.0,16.0,59,0.00,,,0.00,meteohub,2013-01-08 02:06:00,
2013-01-07 20:11:00,42.1,28.8,30.04,South,186,10.0,16.0,59,0.00,,,0.00,meteohub,2013-01-08 02:11:00,
2013-01-07 20:16:00,41.7,28.9,30.03,SSE,148,6.0,16.0,60,0.00,,,0.00,meteohub,2013-01-08 02:16:00,
2013-01-07 20:21:00,41.7,28.9,30.03,SSE,161,14.0,17.0,60,0.00,,,0.00,meteohub,2013-01-08 02:21:00,
2013-01-07 20:26:00,41.7,28.9,30.03,SSW,211,14.0,17.0,60,0.00,,,0.00,meteohub,2013-01-08 02:26:00,
2013-01-07 20:31:00,41.5,28.8,30.03,South,189,11.0,17.0,60,0.00,,,0.00,meteohub,2013-01-08 02:31:00,
2013-01-07 20:36:00,41.5,29.1,30.04,SSE,165,7.0,16.0,61,0.00,,,0.00,meteohub,2013-01-08 02:36:00,
2013-01-07 20:41:00,41.5,29.1,30.04,SW,225,10.0,15.0,61,0.00,,,0.00,meteohub,2013-01-08 02:41:00,
2013-01-07 20:46:00,41.4,28.9,30.04,South,177,4.0,15.0,61,0.00,,,0.00,meteohub,2013-01-08 02:46:00,
2013-01-07 20:51:00,41.4,28.9,30.04,SSE,158,9.0,15.0,61,0.00,,,0.00,meteohub,2013-01-08 02:51:00,
2013-01-07 20:56:00,41.4,29.3,30.04,South,185,7.0,13.0,62,0.00,,,0.00,meteohub,2013-01-08 02:56:00,
2013-01-07 21:01:00,41.4,29.3,30.04,SSW,206,6.0,13.0,62,0.00,,,0.00,meteohub,2013-01-08 03:01:00,
2013-01-07 21:06:00,41.4,29.3,30.04,SSW,198,7.0,13.0,62,0.00,,,0.00,meteohub,2013-01-08 03:06:00,
2013-01-07 21:11:00,41.4,29.3,30.04,SSE,167,3.0,13.0,62,0.00,,,0.00,meteohub,2013-01-08 03:11:00,
2013-01-07 21:16:00,41.4,29.3,30.04,SW,236,4.0,12.0,62,0.00,,,0.00,meteohub,2013-01-08 03:16:00,
2013-01-07 21:21:00,41.5,29.5,30.04,South,180,7.0,12.0,62,0.00,,,0.00,meteohub,2013-01-08 03:21:00,
2013-01-07 21:26:00,41.5,29.5,30.04,South,182,10.0,11.0,62,0.00,,,0.00,meteohub,2013-01-08 03:26:00,
2013-01-07 21:31:00,41.5,29.5,30.04,South,178,5.0,11.0,62,0.00,,,0.00,meteohub,2013-01-08 03:31:00,
2013-01-07 21:36:00,41.5,29.5,30.04,SSE,161,4.0,13.0,62,0.00,,,0.00,meteohub,2013-01-08 03:36:00,
2013-01-07 21:41:00,41.5,29.5,30.04,SSE,156,9.0,13.0,62,0.00,,,0.00,meteohub,2013-01-08 03:41:00,
2013-01-07 21:46:00,41.5,29.8,30.04,SSE,167,5.0,13.0,63,0.00,,,0.00,meteohub,2013-01-08 03:46:00,
2013-01-07 21:51:00,41.5,29.8,30.04,South,186,1.0,13.0,63,0.00,,,0.00,meteohub,2013-01-08 03:51:00,
2013-01-07 21:56:00,41.4,29.7,30.04,South,181,7.0,13.0,63,0.00,,,0.00,meteohub,2013-01-08 03:56:00,
2013-01-07 22:01:00,41.4,29.7,30.04,South,175,4.0,13.0,63,0.00,,,0.00,meteohub,2013-01-08 04:01:00,
2013-01-07 22:06:00,41.2,29.5,30.04,SSE,159,7.0,12.0,63,0.00,,,0.00,meteohub,2013-01-08 04:06:00,
2013-01-07 22:11:00,41.2,30.0,30.04,South,171,4.0,12.0,64,0.00,,,0.00,meteohub,2013-01-08 04:11:00,
2013-01-07 22:16:00,41.2,30.0,30.04,SW,225,9.0,14.0,64,0.00,,,0.00,meteohub,2013-01-08 04:16:00,
2013-01-07 22:21:00,40.8,29.7,30.04,SSW,197,5.0,14.0,64,0.00,,,0.00,meteohub,2013-01-08 04:21:00,
2013-01-07 22:26:00,40.8,29.7,30.04,SW,225,4.0,10.0,64,0.00,,,0.00,meteohub,2013-01-08 04:26:00,
2013-01-07 22:31:00,40.8,30.0,30.04,South,182,2.0,10.0,65,0.00,,,0.00,meteohub,2013-01-08 04:31:00,
2013-01-07 22:36:00,40.6,29.8,30.03,SSW,198,5.0,9.0,65,0.00,,,0.00,meteohub,2013-01-08 04:36:00,
2013-01-07 22:41:00,40.6,29.8,30.03,SSE,157,4.0,9.0,65,0.00,,,0.00,meteohub,2013-01-08 04:41:00,
2013-01-07 22:46:00,40.5,29.7,30.03,SSE,168,2.0,11.0,65,0.00,,,0.00,meteohub,2013-01-08 04:46:00,
2013-01-07 22:51:00,40.3,29.5,30.03,SE,127,4.0,11.0,65,0.00,,,0.00,meteohub,2013-01-08 04:51:00,
2013-01-07 22:56:00,40.3,29.8,30.02,South,190,5.0,11.0,66,0.00,,,0.00,meteohub,2013-01-08 04:56:00,
2013-01-07 23:00:00,40.1,29.7,30.02,South,169,3.0,11.0,66,0.00,,,0.00,meteohub,2013-01-08 05:00:00,
2013-01-07 23:01:00,40.1,29.7,30.02,South,189,6.0,11.0,66,0.00,,,0.00,meteohub,2013-01-08 05:01:00,
2013-01-07 23:02:00,40.1,29.7,30.03,South,175,6.0,11.0,66,0.00,,,0.00,meteohub,2013-01-08 05:02:00,
2013-01-07 23:04:00,39.9,29.5,30.02,SE,135,4.0,11.0,66,0.00,,,0.00,meteohub,2013-01-08 05:04:00,
2013-01-07 23:09:00,39.9,29.5,30.02,SW,231,3.0,11.0,66,0.00,,,0.00,meteohub,2013-01-08 05:09:00,
2013-01-07 23:14:00,39.7,29.7,30.03,SSW,211,4.0,10.0,67,0.00,,,0.00,meteohub,2013-01-08 05:14:00,
2013-01-07 23:19:00,39.7,29.7,30.03,South,182,3.0,10.0,67,0.00,,,0.00,meteohub,2013-01-08 05:19:00,
2013-01-07 23:24:00,39.7,29.7,30.03,SSE,155,5.0,10.0,67,0.00,,,0.00,meteohub,2013-01-08 05:24:00,
2013-01-07 23:29:00,39.6,29.5,30.03,SSE,161,5.0,10.0,67,0.00,,,0.00,meteohub,2013-01-08 05:29:00,
2013-01-07 23:34:00,39.6,29.5,30.03,South,178,3.0,10.0,67,0.00,,,0.00,meteohub,2013-01-08 05:34:00,
2013-01-07 23:39:00,39.6,29.5,30.03,SSW,199,4.0,11.0,67,0.00,,,0.00,meteohub,2013-01-08 05:39:00,
2013-01-07 23:44:00,39.4,29.7,30.03,South,187,3.0,11.0,68,0.00,,,0.00,meteohub,2013-01-08 05:44:00,
2013-01-07 23:49:00,39.4,29.7,30.02,SSE,155,4.0,11.0,68,0.00,,,0.00,meteohub,2013-01-08 05:49:00,
2013-01-07 23:54:00,39.4,29.7,30.02,SSE,163,5.0,14.0,68,0.00,,,0.00,meteohub,2013-01-08 05:54:00,
2013-01-07 23:59:00,39.4,29.7,30.02,SSE,166,5.0,14.0,68,0.00,,,0.00,meteohub,2013-01-08 05:59:00,